Regional Weather Roundup
Issued by NWS Upton, NY

Current Version | Previous Version | Graphics & Text | Print | Product List | Glossary Off
Versions: 1 2 3 4 5 6 7 8 9 10 11 12 13 14 15 16 17 18 19 20 21 22 23 24 25 26 27 28 29 30 31 32 33 34 35 36 37 38 39 40 41 42 43 44 45 46 47 48 49 50

000
ASUS41 KOKX 261304
RWROKX

REGIONAL WEATHER ROUNDUP
NATIONAL WEATHER SERVICE NEW YORK NY
900 AM EDT THU MAY 26 2016

NOTE: "FAIR" INDICATES FEW OR NO CLOUDS BELOW 12,000 FEET WITH NO
SIGNIFICANT WEATHER AND/OR OBSTRUCTIONS TO VISIBILITY.

NYZ071-072-176-178-NJZ106-104-261400-
NEW YORK CITY METRO AREA


CITY           SKY/WX    TMP DP  RH WIND       PRES   REMARKS
CENTRAL PARK   SUNNY     76  50  40 W5        30.14S
LAGUARDIA APRT PTSUNNY   78  57  48 NW5       30.10F
KENNEDY INTL   PTSUNNY   75  54  47 S5        30.12S
NEWARK/LIBERTY PTSUNNY   79  53  40 W5        30.11S
BRNX BOT. GARD   N/A     77  54  44 W1        30.13S
TETERBORO      SUNNY     76  53  44 CALM      30.10S
$$

NYZ177-179-078>081-261400-
LONG ISLAND NEW YORK

CITY           SKY/WX    TMP DP  RH WIND       PRES   REMARKS
FARMINGDALE    SUNNY     76  56  49 VRB3      30.11F
ISLIP          MOSUNNY   76  56  49 CALM      30.11S
SHIRLEY        SUNNY     76  60  57 W3        30.12S
RIVERHEAD        N/A     75  59  57 CALM      30.11S
WESTHAMPTON    NOT AVBL
EAST HAMPTON   FAIR      73  59  62 CALM      30.11S
MONTAUK POINT    N/A     69  58  67 CALM      30.12R
$$

NYZ052-065-067-261400-
HUDSON VALLEY

CITY           SKY/WX    TMP DP  RH WIND       PRES   REMARKS
WHITE PLAINS   SUNNY     77  55  46 CALM      30.11S
NEWBURGH       SUNNY     73  57  56 CALM      30.12F
MONTGOMERY     SUNNY     73  58  59 CALM      30.11F
POUGHKEEPSIE   MOSUNNY   72  57  59 CALM      30.10F
ALBANY         PTSUNNY   69  56  62 N7        30.13F
$$

NJZ001-105-106-008-010-013-015-019>022-104-261400-
NEW JERSEY

CITY           SKY/WX    TMP DP  RH WIND       PRES   REMARKS
NEWARK/LIBERTY PTSUNNY   79  53  40 W5        30.11S
TETERBORO      SUNNY     76  53  44 CALM      30.10S
CALDWELL       SUNNY     75  54  47 CALM      30.12S
MORRISTOWN     PTSUNNY   75  59  57 CALM      30.12S
SOMERVILLE     SUNNY     74  60  61 CALM      30.10F
SUSSEX         SUNNY     70  57  63 CALM      30.12F
ANDOVER          N/A     72  56  57 CALM      30.13F
TRENTON        SUNNY     74  57  55 SW6       30.12F
MILLVILLE      SUNNY     77  60  55 CALM      30.14F
ATLANTIC CITY  SUNNY     78  58  49 SW5       30.14F
WRIGHTSTOWN    NOT AVBL
TOMS RIVER     SUNNY     79  55  44 SW12      30.13F
BELMAR         SUNNY     77  58  51 SW7       30.14S
$$

PAZ047>061-062-071-261400-
EASTERN PENNSYLVANIA

CITY           SKY/WX    TMP DP  RH WIND       PRES   REMARKS
PHILADELPHIA   PTSUNNY   72  58  61 SW6       30.14S
ALLENTOWN      PTSUNNY   72  56  57 CALM      30.13S
SCRANTON       CLOUDY    66  55  67 CALM      30.15R
$$

CTZ002-004>006-009-010-012-RIZ004-006-007-MAZ004-011-015-261400-
SOUTHERN NEW ENGLAND
 IN CT

CITY           SKY/WX    TMP DP  RH WIND       PRES   REMARKS
BRADLEY INTL   MOSUNNY   75  56  51 CALM      30.10F
HARTFORD       SUNNY     76  57  51 CALM      30.10F
DANBURY        SUNNY     73  55  53 CALM      30.13S
WTRBRY/OXFORD  PTSUNNY   75  55  50 CALM      30.13S
BRIDGEPORT     SUNNY     76  58  53 CALM      30.11S
MERIDEN        MOSUNNY   76  59  55 CALM      30.11S
NEW HAVEN      SUNNY     73  60  63 CALM      30.10F
CHESTER        FAIR      81  57  44 CALM      30.12S
GROTON         SUNNY     70  61  73 SW3       30.10S
WILLIMANTIC    SUNNY     74  58  57 CALM      30.11S

 IN RI

CITY           SKY/WX    TMP DP  RH WIND       PRES   REMARKS
PROVIDENCE     PTSUNNY   78  58  49 CALM      30.10S
BLOCK ISLAND   PTSUNNY   72  56  57 W6        30.12R
WESTERLY       MOSUNNY   77  59  53 S3        30.11R

 IN MA

CITY           SKY/WX    TMP DP  RH WIND       PRES   REMARKS
BOSTON         PTSUNNY   77  57  50 NW5       30.11R
WORCESTER      SUNNY     75  53  46 W8        30.13S
WESTFIELD      SUNNY     73  59  61 CALM      30.11F
PROVINCETOWN   SUNNY     70  56  61 NW6       30.11S
NANTUCKET      MOSUNNY   77  56  48 N7        30.10S
$$

ANZ330-335-338-340-345-350-353-355-261400-
COASTAL MARINE OBSERVATIONS


STATION/POSITION TIME  SKY/WX   TEMP    WIND        PRES    VSBY  WAVE
                                AIR SEA DIR/SP/G                  HT/PER
                 (UTC)          (F)     (DEG/KT/KT) (MB)    (MI)  (FT/S)
NY HARB ENTRANCE 1250            62 60  210/  6/  6 1019.6          2/ 8
20S FIRE ISLAND  1150            60 57  230/ 10/ 12 1019.7          2/ 6
GREAT SOUTH BAY  1200            65 66  250/  8/  8   N/A
23 SSW MONTAUK P 1250            58 55  260/  8/ 10 1019.5          2/ 8
15 E BARNEGAT LI 1222               56                N/A           2/10
HUDSON CANYON    1150            59 54              1020.8          2/ 7
KINGS POINT      1200            67 60              1019.5
EXECUTION ROCKS  NOT AVBL
CENTRAL LI SOUND 1200            61     260/  4/  4   N/A           0
EASTERN LI SOUND 1200            62 53  250/  4/  6   N/A
ROBBINS REEF     1200            71     280/  7/  8 1019.0
$$


>>>>>>>>>>>>>>>>>>>>>>>>>>>> KEY <<<<<<<<<<<<<<<<<<<<<<<<<<<
>                                                          <
>     SKY/WX - SKY CONDITION/PRESENT WEATHER               <
>     TMP    - TEMPERATURE IN FAHRENHEIT                   <
>     DP     - DEWPOINT IN FAHRENHEIT                      <
>     RH     - RELATIVE HUMIDITY IN PERCENT                <
>     WIND   - DIRECTION AND SPEED IN MPH                  <
>     PRES   - MEAN SEA LEVEL PRESSURE IN INCHES OF HG     <
>     WCI    - WIND CHILL INDEX                            <
>     VSB    - VISIBILITY IN MILES                         <
>     HX     - HEAT INDEX                                  <
>     TC     - TEMPERATURE IN CELSIUS                      <
>     VRB    - VARIABLE WIND DIRECTION                     <
>                                                          <
>>>>>>>>>>>>>>>>>>>>>>>>>>>> KEY <<<<<<<<<<<<<<<<<<<<<<<<<<<





USA.gov is the U.S. government's official web portal to all federal, state and local government web resources and services.